Location: Marcé
(47.5801°N, 0.3280°W)
Time: 18:32:14
(UTC+01:00)

Tiros 1 despin weight - Pass Details

Date: 09 December 2021
Orbit: 592 x 641 km, 48.2° (Epoch: 21 January)

Event Time Altitude Azimuth Distance (km) Brightness Sun altitude
Rises 17:42:03 0° 285° (WNW) 2,828 ? -5.5°
Reaches altitude 10° 17:44:31 10° 275° (W) 1,922 ? -5.8°
Maximum altitude 17:48:22 30° 213° (SSW) 1,062 ? -6.4°
Drops below altitude 10° 17:52:13 10° 152° (SSE) 1,918 ? -7.0°
Sets 17:54:42 0° 142° (SE) 2,821 ? -7.4°
